Location: Kikino
(54.4440°N, 112.0940°W)
Time: 19:49:50
(UTC+00:00)

A-11 Canister half - Pass Details

Date: 23 May 2024
Orbit: 1525 x 1683 km, 47.3° (Epoch: 12 June)

Event Time Altitude Azimuth Distance (km) Brightness Sun altitude
Rises 02:36:57 0° 179° (S) 4,671 11.3 6.9°
Reaches altitude 10° 02:41:45 10° 158° (SSE) 3,710 10.6 6.2°
Maximum altitude 02:46:22 15° 127° (SE) 3,360 10.2 5.6°
Drops below altitude 10° 02:51:02 10° 97° (E) 3,768 10.5 5.0°
Sets 02:55:57 0° 77° (ENE) 4,789 11.1 4.4°
